Terminal Aerodrome Forecast
Issued by NWS

Home | Current Version | Previous Version | Text Only | Print | Product List | Glossary On
Versions: 1 2 3 4 5 6 7 8 9 10 11 12
000
FTUS42 TJSJ 281700
TAFJMZ
TAF
TJMZ 281740Z 2818/2918 27010KT P6SM VCSH SCT040
     FM282200 06006KT P6SM FEW040
     FM291530 27010KT P6SM VCSH SCT025 BKN040
      AMD NOT SKED=

USA.gov is the U.S. government's official web portal to all federal, state and local government web resources and services.